| time (UTC) | temp C | wind direction | speed KPH | gust KPH | rain 1hr cm | rain 24hr cm | rain mn cm | humidity % | barometer mb |
| 20260507211549 | 15 | 276 | 1.6 | 11.3 | 0.00 | 0.00 | 0.00 | 41 | 1009.7 |
| 20260507211018 | 15 | 300 | 4.8 | 12.9 | 0.00 | 0.00 | 0.00 | 40 | 1009.6 |
| 20260507210518 | 14 | 292 | 1.6 | 12.9 | 0.00 | 0.00 | 0.00 | 43 | 1009.6 |
| 20260507210038 | 14 | 300 | 4.8 | 12.9 | 0.00 | 0.00 | 0.00 | 42 | 1009.5 |
| 20260507205518 | 15 | 323 | 3.2 | 12.9 | 0.00 | 0.00 | 0.00 | 41 | 1009.4 |
| 20260507205017 | 15 | 300 | 3.2 | 12.9 | 0.00 | 0.00 | 0.00 | 40 | 1009.4 |
| 20260507204536 | 14 | 308 | 3.2 | 14.5 | 0.00 | 0.00 | 0.00 | 40 | 1009.6 |
| 20260507204016 | 15 | 314 | 6.4 | 14.5 | 0.00 | 0.00 | 0.00 | 42 | 1009.6 |
| 20260507203516 | 15 | 308 | 3.2 | 14.5 | 0.00 | 0.00 | 0.00 | 44 | 1009.5 |
| 20260507203041 | 15 | 0 | 3.2 | 14.5 | 0.00 | 0.00 | 0.00 | 44 | 1009.6 |
| 20260507202518 | 15 | 310 | 4.8 | 14.5 | 0.00 | 0.00 | 0.00 | 41 | 1009.5 |
| 20260507202017 | 15 | 329 | 3.2 | 14.5 | 0.00 | 0.00 | 0.00 | 43 | 1009.6 |
| 20260507201536 | 15 | 0 | 1.6 | 14.5 | 0.00 | 0.00 | 0.00 | 42 | 1009.6 |
| 20260507201018 | 15 | 151 | 4.8 | 14.5 | 0.00 | 0.00 | 0.00 | 42 | 1009.7 |
| 20260507200517 | 15 | 43 | 4.8 | 14.5 | 0.00 | 0.00 | 0.00 | 44 | 1009.7 |
| 20260507200035 | 15 | 338 | 3.2 | 14.5 | 0.00 | 0.00 | 0.00 | 42 | 1009.7 |
| 20260507195516 | 15 | 302 | 4.8 | 14.5 | 0.00 | 0.00 | 0.00 | 40 | 1009.7 |
| 20260507195017 | 16 | 150 | 3.2 | 14.5 | 0.00 | 0.00 | 0.00 | 43 | 1009.8 |
| 20260507194538 | 15 | 266 | 3.2 | 14.5 | 0.00 | 0.00 | 0.00 | 45 | 1009.9 |
| 20260507194018 | 15 | 302 | 3.2 | 9.7 | 0.00 | 0.00 | 0.00 | 46 | 1010.0 |
| 20260507193516 | 15 | 308 | 3.2 | 9.7 | 0.00 | 0.00 | 0.00 | 42 | 1010.0 |
| 20260507193035 | 15 | 296 | 4.8 | 19.3 | 0.00 | 0.00 | 0.00 | 45 | 1010.0 |
| 20260507192517 | 15 | 360 | 6.4 | 19.3 | 0.00 | 0.00 | 0.00 | 42 | 1010.0 |
| 20260507192017 | 15 | 320 | 3.2 | 17.7 | 0.00 | 0.00 | 0.00 | 42 | 1010.0 |
| 20260507191539 | 15 | 245 | 4.8 | 22.5 | 0.00 | 0.00 | 0.00 | 43 | 1010.0 |
| 20260507191016 | 16 | 282 | 4.8 | 22.5 | 0.00 | 0.00 | 0.00 | 44 | 1010.0 |
| 20260507190518 | 16 | 217 | 6.4 | 19.3 | 0.00 | 0.00 | 0.00 | 41 | 1010.0 |
| 20260507190038 | 16 | 219 | 3.2 | 19.3 | 0.00 | 0.00 | 0.00 | 43 | 1010.1 |
| 20260507185517 | 16 | 234 | 4.8 | 16.1 | 0.00 | 0.00 | 0.00 | 46 | 1010.1 |
| 20260507185017 | 16 | 316 | 6.4 | 16.1 | 0.00 | 0.00 | 0.00 | 46 | 1010.2 |
| 20260507184533 | 15 | 288 | 4.8 | 11.3 | 0.00 | 0.00 | 0.00 | 44 | 1010.2 |
| 20260507184018 | 15 | 323 | 3.2 | 16.1 | 0.00 | 0.00 | 0.00 | 49 | 1010.3 |
| 20260507183517 | 14 | 314 | 3.2 | 16.1 | 0.00 | 0.00 | 0.00 | 48 | 1010.4 |
| 20260507183034 | 14 | 301 | 4.8 | 16.1 | 0.00 | 0.00 | 0.00 | 47 | 1010.5 |
| 20260507182516 | 14 | 313 | 6.4 | 16.1 | 0.00 | 0.00 | 0.00 | 47 | 1010.5 |
| 20260507182017 | 15 | 55 | 6.4 | 11.3 | 0.00 | 0.00 | 0.00 | 44 | 1010.4 |
| 20260507181544 | 15 | 224 | 3.2 | 9.7 | 0.00 | 0.00 | 0.00 | 42 | 1010.4 |
| 20260507181018 | 15 | 217 | 1.6 | 11.3 | 0.00 | 0.00 | 0.00 | 45 | 1010.5 |
| 20260507180517 | 15 | 308 | 3.2 | 16.1 | 0.00 | 0.00 | 0.00 | 44 | 1010.6 |
| 20260507180040 | 15 | 128 | 4.8 | 16.1 | 0.00 | 0.00 | 0.00 | 40 | 1010.8 |
| 20260507175520 | 15 | 336 | 4.8 | 16.1 | 0.00 | 0.00 | 0.00 | 46 | 1010.6 |
| 20260507175018 | 15 | 133 | 1.6 | 11.3 | 0.00 | 0.00 | 0.00 | 45 | 1010.7 |
| 20260507174536 | 15 | 261 | 4.8 | 11.3 | 0.00 | 0.00 | 0.00 | 41 | 1010.8 |
| 20260507174016 | 15 | 0 | 1.6 | 14.5 | 0.00 | 0.00 | 0.00 | 44 | 1010.9 |
| 20260507173517 | 15 | 138 | 4.8 | 14.5 | 0.00 | 0.00 | 0.00 | 44 | 1010.9 |
| 20260507173036 | 15 | 303 | 4.8 | 16.1 | 0.00 | 0.00 | 0.00 | 44 | 1011.0 |
| 20260507172517 | 15 | 248 | 4.8 | 16.1 | 0.00 | 0.00 | 0.00 | 43 | 1011.1 |
| 20260507172017 | 15 | 294 | 6.4 | 16.1 | 0.00 | 0.00 | 0.00 | 43 | 1011.2 |
| 20260507171533 | 15 | 258 | 4.8 | 17.7 | 0.00 | 0.00 | 0.00 | 44 | 1011.1 |
| 20260507171017 | 15 | 310 | 3.2 | 17.7 | 0.00 | 0.00 | 0.00 | 47 | 1011.3 |
| 20260507170517 | 15 | 334 | 3.2 | 14.5 | 0.00 | 0.00 | 0.00 | 45 | 1011.3 |
| 20260507170042 | 14 | 148 | 4.8 | 14.5 | 0.00 | 0.00 | 0.00 | 49 | 1011.4 |
| 20260507165517 | 13 | 233 | 1.6 | 9.7 | 0.00 | 0.00 | 0.00 | 45 | 1011.4 |
| 20260507165018 | 13 | 326 | 1.6 | 9.7 | 0.00 | 0.00 | 0.00 | 48 | 1011.5 |
| 20260507164534 | 13 | 277 | 1.6 | 9.7 | 0.00 | 0.00 | 0.00 | 48 | 1011.5 |
| 20260507164018 | 13 | 329 | 3.2 | 9.7 | 0.00 | 0.00 | 0.00 | 44 | 1011.5 |
| 20260507163517 | 13 | 225 | 1.6 | 8.0 | 0.00 | 0.00 | 0.00 | 51 | 1011.6 |
| 20260507163038 | 13 | 298 | 1.6 | 11.3 | 0.00 | 0.00 | 0.00 | 46 | 1011.7 |
| 20260507162519 | 13 | 52 | 3.2 | 11.3 | 0.00 | 0.00 | 0.00 | 54 | 1011.8 |
| 20260507162021 | 13 | 281 | 3.2 | 8.0 | 0.00 | 0.00 | 0.00 | 49 | 1011.8 |
| 20260507161535 | 13 | 214 | 1.6 | 8.0 | 0.00 | 0.00 | 0.00 | 47 | 1011.8 |
| 20260507161017 | 13 | 274 | 3.2 | 9.7 | 0.00 | 0.00 | 0.00 | 47 | 1011.9 |
| 20260507160519 | 13 | 259 | 1.6 | 9.7 | 0.00 | 0.00 | 0.00 | 50 | 1011.9 |
| 20260507160038 | 13 | 320 | 3.2 | 9.7 | 0.00 | 0.00 | 0.00 | 51 | 1012.0 |
| 20260507155517 | 12 | 356 | 4.8 | 9.7 | 0.00 | 0.00 | 0.00 | 50 | 1011.9 |
| 20260507155016 | 13 | 290 | 1.6 | 11.3 | 0.00 | 0.00 | 0.00 | 47 | 1011.9 |
| 20260507154534 | 12 | 325 | 4.8 | 11.3 | 0.00 | 0.00 | 0.00 | 48 | 1012.0 |
| 20260507154018 | 12 | 338 | 1.6 | 9.7 | 0.00 | 0.00 | 0.00 | 51 | 1012.1 |
| 20260507153518 | 13 | 331 | 4.8 | 14.5 | 0.00 | 0.00 | 0.00 | 48 | 1012.1 |
| 20260507153036 | 13 | 305 | 1.6 | 14.5 | 0.00 | 0.00 | 0.00 | 52 | 1012.0 |
| 20260507152519 | 13 | 328 | 6.4 | 12.9 | 0.00 | 0.00 | 0.00 | 48 | 1012.1 |
| 20260507152018 | 13 | 152 | 4.8 | 11.3 | 0.00 | 0.00 | 0.00 | 49 | 1012.1 |
| 20260507151541 | 13 | 334 | 1.6 | 9.7 | 0.00 | 0.00 | 0.00 | 56 | 1012.2 |
| 20260507151018 | 13 | 318 | 3.2 | 12.9 | 0.00 | 0.00 | 0.00 | 49 | 1012.3 |
| 20260507150518 | 13 | 171 | 3.2 | 12.9 | 0.00 | 0.00 | 0.00 | 49 | 1012.4 |
| 20260507150036 | 13 | 63 | 3.2 | 9.7 | 0.00 | 0.00 | 0.00 | 51 | 1012.5 |
| 20260507145518 | 13 | 329 | 4.8 | 9.7 | 0.00 | 0.08 | 0.00 | 51 | 1012.7 |
| 20260507145017 | 13 | 205 | 3.2 | 9.7 | 0.00 | 0.08 | 0.00 | 55 | 1012.6 |
| 20260507144536 | 12 | 262 | 4.8 | 9.7 | 0.00 | 0.08 | 0.00 | 50 | 1012.7 |
| 20260507144018 | 12 | 114 | 1.6 | 9.7 | 0.00 | 0.08 | 0.00 | 57 | 1012.8 |
| 20260507143518 | 12 | 269 | 6.4 | 9.7 | 0.00 | 0.08 | 0.00 | 53 | 1012.9 |
| 20260507143036 | 12 | 312 | 1.6 | 8.0 | 0.00 | 0.08 | 0.00 | 51 | 1013.0 |
| 20260507142516 | 12 | 0 | 1.6 | 9.7 | 0.00 | 0.08 | 0.00 | 57 | 1013.0 |
| 20260507142017 | 12 | 42 | 4.8 | 9.7 | 0.00 | 0.08 | 0.00 | 54 | 1013.1 |
| 20260507141536 | 12 | 297 | 3.2 | 9.7 | 0.00 | 0.08 | 0.00 | 57 | 1013.1 |
| 20260507141018 | 12 | 268 | 1.6 | 8.0 | 0.00 | 0.08 | 0.00 | 56 | 1013.2 |
| 20260507140517 | 12 | 155 | 3.2 | 11.3 | 0.00 | 0.08 | 0.00 | 54 | 1013.3 |
| 20260507140053 | 12 | 243 | 3.2 | 11.3 | 0.00 | 0.08 | 0.00 | 54 | 1013.3 |
| 20260507135517 | 12 | 256 | 0.0 | 11.3 | 0.00 | 0.13 | 0.00 | 56 | 1013.5 |
| 20260507135017 | 11 | 110 | 3.2 | 11.3 | 0.00 | 0.13 | 0.00 | 57 | 1013.4 |
| 20260507134539 | 11 | 307 | 3.2 | 11.3 | 0.00 | 0.13 | 0.00 | 58 | 1013.4 |
| 20260507134023 | 11 | 213 | 3.2 | 11.3 | 0.00 | 0.13 | 0.00 | 58 | 1013.5 |
| 20260507133522 | 11 | 348 | 3.2 | 6.4 | 0.00 | 0.13 | 0.00 | 59 | 1013.5 |
| 20260507133034 | 11 | 290 | 3.2 | 6.4 | 0.00 | 0.13 | 0.00 | 59 | 1013.6 |
| 20260507132518 | 11 | 0 | 3.2 | 4.8 | 0.00 | 0.13 | 0.00 | 60 | 1013.6 |
| 20260507132020 | 11 | 253 | 0.0 | 6.4 | 0.00 | 0.13 | 0.00 | 65 | 1013.6 |
| 20260507131542 | 11 | 160 | 1.6 | 6.4 | 0.00 | 0.13 | 0.00 | 67 | 1013.6 |
| 20260507131018 | 10 | 101 | 1.6 | 6.4 | 0.00 | 0.13 | 0.00 | 64 | 1013.5 |
| 20260507130517 | 10 | 230 | 1.6 | 6.4 | 0.00 | 0.13 | 0.00 | 64 | 1013.5 |
| 20260507130034 | 10 | 287 | 1.6 | 6.4 | 0.00 | 0.13 | 0.00 | 62 | 1013.5 |
| 20260507125517 | 10 | 211 | 1.6 | 8.0 | 0.00 | 0.23 | 0.00 | 67 | 1013.5 |
| 20260507125019 | 10 | 0 | 1.6 | 8.0 | 0.00 | 0.23 | 0.00 | 67 | 1013.6 |
| 20260507124543 | 10 | 0 | 3.2 | 8.0 | 0.00 | 0.23 | 0.00 | 65 | 1013.6 |
| 20260507124021 | 10 | 320 | 1.6 | 3.2 | 0.00 | 0.23 | 0.00 | 70 | 1013.6 |
| 20260507123519 | 10 | 139 | 0.0 | 3.2 | 0.00 | 0.23 | 0.00 | 72 | 1013.6 |
| 20260507123039 | 9 | 221 | 0.0 | 6.4 | 0.00 | 0.23 | 0.00 | 74 | 1013.7 |
| 20260507122517 | 8 | 160 | 0.0 | 6.4 | 0.00 | 0.23 | 0.00 | 79 | 1013.7 |
| 20260507122018 | 8 | 117 | 1.6 | 6.4 | 0.00 | 0.23 | 0.00 | 79 | 1013.7 |
| 20260507121538 | 7 | 121 | 1.6 | 3.2 | 0.00 | 0.23 | 0.00 | 83 | 1013.8 |
| 20260507121018 | 7 | 162 | 0.0 | 3.2 | 0.00 | 0.23 | 0.00 | 86 | 1013.7 |
| 20260507120519 | 7 | 0 | 1.6 | 3.2 | 0.00 | 0.23 | 0.00 | 86 | 1013.7 |
| 20260507120035 | 6 | 85 | 1.6 | 3.2 | 0.00 | 0.23 | 0.00 | 86 | 1013.7 |
| 20260507115523 | 6 | 125 | 1.6 | 3.2 | 0.00 | 0.28 | 0.00 | 87 | 1013.6 |
| 20260507115021 | 6 | 103 | 1.6 | 3.2 | 0.00 | 0.28 | 0.00 | 88 | 1013.6 |
| 20260507114535 | 6 | 108 | 0.0 | 3.2 | 0.00 | 0.28 | 0.00 | 90 | 1013.6 |
| 20260507114019 | 6 | 126 | 1.6 | 3.2 | 0.00 | 0.28 | 0.00 | 90 | 1013.5 |
| 20260507113517 | 5 | 105 | 0.0 | 1.6 | 0.00 | 0.28 | 0.00 | 91 | 1013.5 |
| 20260507113039 | 6 | 124 | 0.0 | 1.6 | 0.00 | 0.28 | 0.00 | 91 | 1013.5 |
| 20260507112517 | 6 | 0 | 0.0 | 0.0 | 0.00 | 0.28 | 0.00 | 94 | 1013.4 |
| 20260507112017 | 5 | 0 | 0.0 | 0.0 | 0.00 | 0.28 | 0.00 | 94 | 1013.3 |
| 20260507111538 | 4 | 0 | 0.0 | 0.0 | 0.00 | 0.28 | 0.00 | 94 | 1013.2 |
| 20260507111017 | 4 | 0 | 0.0 | 0.0 | 0.00 | 0.28 | 0.00 | 94 | 1013.2 |
| 20260507110517 | 3 | 0 | 0.0 | 0.0 | 0.00 | 0.28 | 0.00 | 95 | 1013.3 |
| 20260507110039 | 3 | 0 | 0.0 | 0.0 | 0.00 | 0.28 | 0.00 | 94 | 1013.2 |
| 20260507105516 | 2 | 0 | 0.0 | 0.0 | 0.00 | 0.91 | 0.00 | 94 | 1013.1 |
| 20260507105018 | 2 | 0 | 0.0 | 0.0 | 0.00 | 0.91 | 0.00 | 94 | 1013.2 |
| 20260507104539 | 2 | 0 | 0.0 | 0.0 | 0.00 | 0.91 | 0.00 | 94 | 1013.0 |
| 20260507104017 | 1 | 0 | 0.0 | 0.0 | 0.00 | 0.91 | 0.00 | 94 | 1013.0 |
| 20260507103517 | 1 | 0 | 0.0 | 0.0 | 0.00 | 0.91 | 0.00 | 94 | 1013.0 |
| 20260507103035 | 1 | 0 | 0.0 | 0.0 | 0.00 | 0.91 | 0.00 | 93 | 1013.0 |
| 20260507102518 | 1 | 0 | 0.0 | 0.0 | 0.00 | 0.91 | 0.00 | 93 | 1012.9 |
| 20260507102018 | 1 | 0 | 0.0 | 0.0 | 0.00 | 0.91 | 0.00 | 93 | 1012.9 |
| 20260507101553 | 2 | 0 | 0.0 | 0.0 | 0.00 | 0.91 | 0.00 | 93 | 1012.8 |
| 20260507101016 | 2 | 0 | 0.0 | 0.0 | 0.00 | 0.91 | 0.00 | 93 | 1012.8 |
| 20260507100519 | 2 | 0 | 0.0 | 0.0 | 0.00 | 0.91 | 0.00 | 93 | 1012.9 |
| 20260507100037 | 2 | 0 | 0.0 | 0.0 | 0.00 | 0.91 | 0.00 | 93 | 1012.8 |
| 20260507095517 | 2 | 0 | 0.0 | 0.0 | 0.00 | 1.30 | 0.00 | 93 | 1012.8 |
| 20260507095019 | 2 | 0 | 0.0 | 0.0 | 0.00 | 1.30 | 0.00 | 93 | 1012.8 |
| 20260507094546 | 2 | 0 | 0.0 | 0.0 | 0.00 | 1.30 | 0.00 | 93 | 1012.8 |
| 20260507094018 | 2 | 0 | 0.0 | 0.0 | 0.00 | 1.30 | 0.00 | 93 | 1012.8 |
| 20260507093517 | 2 | 0 | 0.0 | 0.0 | 0.00 | 1.30 | 0.00 | 93 | 1012.7 |
| 20260507093038 | 2 | 0 | 0.0 | 0.0 | 0.00 | 1.30 | 0.00 | 92 | 1012.8 |
| 20260507092523 | 2 | 0 | 0.0 | 0.0 | 0.00 | 1.30 | 0.00 | 92 | 1012.8 |
| 20260507092017 | 2 | 0 | 0.0 | 0.0 | 0.00 | 1.30 | 0.00 | 92 | 1012.9 |
| 20260507091553 | 2 | 0 | 0.0 | 0.0 | 0.00 | 1.30 | 0.00 | 92 | 1012.9 |
| 20260507091018 | 3 | 0 | 0.0 | 0.0 | 0.00 | 1.30 | 0.00 | 92 | 1013.0 |
| 20260507090518 | 3 | 0 | 0.0 | 0.0 | 0.00 | 1.30 | 0.00 | 92 | 1012.9 |
| 20260507090040 | 3 | 0 | 0.0 | 0.0 | 0.00 | 1.30 | 0.00 | 92 | 1012.9 |
| 20260507085517 | 3 | 0 | 0.0 | 0.0 | 0.00 | 1.55 | 0.00 | 92 | 1013.0 |
| 20260507085018 | 3 | 0 | 0.0 | 0.0 | 0.00 | 1.55 | 0.00 | 92 | 1013.0 |
| 20260507084535 | 3 | 0 | 0.0 | 0.0 | 0.00 | 1.55 | 0.00 | 91 | 1012.9 |
| 20260507084019 | 3 | 0 | 0.0 | 0.0 | 0.00 | 1.55 | 0.00 | 91 | 1012.9 |
| 20260507083517 | 3 | 0 | 0.0 | 0.0 | 0.00 | 1.55 | 0.00 | 91 | 1013.0 |
| 20260507083033 | 3 | 0 | 0.0 | 0.0 | 0.00 | 1.55 | 0.00 | 90 | 1013.0 |
| 20260507082515 | 3 | 0 | 0.0 | 0.0 | 0.00 | 1.55 | 0.00 | 91 | 1013.0 |
| 20260507082019 | 3 | 0 | 0.0 | 0.0 | 0.00 | 1.55 | 0.00 | 91 | 1013.0 |
| 20260507081550 | 4 | 0 | 0.0 | 0.0 | 0.00 | 1.55 | 0.00 | 90 | 1012.9 |
| 20260507081017 | 4 | 0 | 0.0 | 1.6 | 0.00 | 1.55 | 0.00 | 90 | 1012.8 |
| 20260507080518 | 4 | 0 | 0.0 | 1.6 | 0.00 | 1.55 | 0.00 | 90 | 1012.7 |
| 20260507080043 | 4 | 0 | 0.0 | 1.6 | 0.00 | 1.55 | 0.00 | 89 | 1012.8 |
| 20260507075519 | 5 | 0 | 0.0 | 0.0 | 0.00 | 1.60 | 0.00 | 89 | 1012.9 |
| 20260507075017 | 5 | 0 | 0.0 | 0.0 | 0.00 | 1.60 | 0.00 | 88 | 1012.9 |
| 20260507074540 | 5 | 0 | 0.0 | 0.0 | 0.00 | 1.60 | 0.00 | 88 | 1013.0 |
| 20260507074019 | 5 | 0 | 0.0 | 0.0 | 0.00 | 1.60 | 0.00 | 87 | 1012.9 |
| 20260507073519 | 5 | 0 | 0.0 | 0.0 | 0.00 | 1.60 | 0.00 | 86 | 1012.9 |
| 20260507073054 | 5 | 0 | 0.0 | 0.0 | 0.00 | 1.60 | 0.00 | 86 | 1012.9 |
| 20260507072519 | 6 | 0 | 0.0 | 0.0 | 0.00 | 1.60 | 0.00 | 86 | 1012.9 |
| 20260507072022 | 6 | 0 | 0.0 | 0.0 | 0.00 | 1.60 | 0.00 | 85 | 1012.9 |
| 20260507071539 | 6 | 0 | 0.0 | 0.0 | 0.00 | 1.60 | 0.00 | 84 | 1012.9 |
| 20260507071018 | 6 | 0 | 0.0 | 0.0 | 0.00 | 1.60 | 0.00 | 83 | 1012.8 |
| 20260507070519 | 6 | 0 | 0.0 | 0.0 | 0.00 | 1.60 | 0.00 | 81 | 1012.8 |
| 20260507070058 | 6 | 0 | 0.0 | 0.0 | 0.00 | 1.60 | 0.00 | 80 | 1012.9 |
| 20260507065517 | 7 | 0 | 0.0 | 0.0 | 0.00 | 1.78 | 0.00 | 79 | 1013.0 |
| 20260507065018 | 7 | 0 | 0.0 | 0.0 | 0.00 | 1.78 | 0.00 | 78 | 1013.0 |
| 20260507064541 | 7 | 0 | 0.0 | 0.0 | 0.00 | 1.78 | 0.00 | 79 | 1012.9 |
| 20260507064018 | 7 | 0 | 0.0 | 0.0 | 0.00 | 1.78 | 0.00 | 79 | 1012.9 |
| 20260507063518 | 7 | 0 | 0.0 | 0.0 | 0.00 | 1.78 | 0.00 | 75 | 1012.9 |
| 20260507063033 | 7 | 0 | 0.0 | 0.0 | 0.00 | 1.78 | 0.00 | 74 | 1012.8 |
| 20260507062519 | 7 | 0 | 0.0 | 3.2 | 0.00 | 1.78 | 0.00 | 75 | 1012.9 |
| 20260507062017 | 7 | 0 | 0.0 | 3.2 | 0.00 | 1.78 | 0.00 | 77 | 1013.0 |
| 20260507061535 | 7 | 330 | 0.0 | 1.6 | 0.00 | 1.78 | 0.00 | 76 | 1013.0 |
| 20260507061017 | 7 | 0 | 0.0 | 1.6 | 0.00 | 1.78 | 0.00 | 77 | 1013.1 |
| 20260507060519 | 7 | 0 | 0.0 | 1.6 | 0.00 | 1.78 | 0.00 | 78 | 1013.2 |
| 20260507060034 | 7 | 0 | 0.0 | 0.0 | 0.00 | 1.78 | 0.00 | 82 | 1013.2 |
| 20260507055517 | 7 | 0 | 0.0 | 0.0 | 0.00 | 1.88 | 0.00 | 83 | 1013.2 |
| 20260507055021 | 7 | 0 | 0.0 | 0.0 | 0.00 | 1.88 | 0.00 | 84 | 1013.3 |
| 20260507054543 | 7 | 0 | 0.0 | 0.0 | 0.00 | 1.88 | 0.00 | 84 | 1013.5 |
| 20260507054020 | 7 | 0 | 0.0 | 0.0 | 0.00 | 1.88 | 0.00 | 85 | 1013.6 |
| 20260507053518 | 7 | 0 | 0.0 | 0.0 | 0.00 | 1.88 | 0.00 | 84 | 1013.6 |
| 20260507053037 | 7 | 0 | 0.0 | 0.0 | 0.00 | 1.88 | 0.00 | 83 | 1013.7 |
| 20260507052518 | 7 | 0 | 0.0 | 0.0 | 0.00 | 1.88 | 0.00 | 82 | 1013.6 |
| 20260507052017 | 7 | 0 | 0.0 | 0.0 | 0.00 | 1.88 | 0.00 | 79 | 1013.6 |
| 20260507051538 | 7 | 0 | 0.0 | 1.6 | 0.00 | 1.88 | 0.00 | 77 | 1013.6 |
| 20260507051016 | 7 | 0 | 0.0 | 1.6 | 0.00 | 1.88 | 0.00 | 77 | 1013.6 |
| 20260507050518 | 7 | 0 | 0.0 | 1.6 | 0.00 | 1.88 | 0.00 | 79 | 1013.5 |
| 20260507050035 | 8 | 0 | 0.0 | 1.6 | 0.00 | 1.88 | 0.00 | 78 | 1013.5 |
| 20260507045516 | 8 | 0 | 0.0 | 0.0 | 0.00 | 1.91 | 0.00 | 76 | 1013.6 |
| 20260507045021 | 8 | 0 | 0.0 | 1.6 | 0.00 | 1.91 | 0.00 | 74 | 1013.6 |
| 20260507044544 | 8 | 0 | 0.0 | 1.6 | 0.00 | 1.91 | 0.00 | 75 | 1013.6 |
| 20260507044020 | 8 | 0 | 0.0 | 1.6 | 0.00 | 1.91 | 0.00 | 75 | 1013.6 |
| 20260507043518 | 8 | 0 | 0.0 | 0.0 | 0.00 | 1.91 | 0.00 | 77 | 1013.6 |
| 20260507043038 | 8 | 0 | 0.0 | 0.0 | 0.00 | 1.91 | 0.00 | 78 | 1013.6 |
| 20260507042520 | 8 | 0 | 0.0 | 1.6 | 0.00 | 1.91 | 0.00 | 76 | 1013.6 |
| 20260507042019 | 8 | 0 | 0.0 | 1.6 | 0.00 | 1.91 | 0.00 | 76 | 1013.6 |
| 20260507041539 | 8 | 301 | 0.0 | 1.6 | 0.00 | 1.91 | 0.00 | 76 | 1013.7 |
| 20260507041018 | 8 | 0 | 0.0 | 0.0 | 0.00 | 1.91 | 0.00 | 76 | 1013.6 |
| 20260507040516 | 8 | 0 | 0.0 | 0.0 | 0.00 | 1.91 | 0.00 | 73 | 1013.6 |
| 20260507040038 | 8 | 0 | 0.0 | 0.0 | 0.00 | 1.91 | 0.00 | 73 | 1013.5 |
| 20260507035518 | 8 | 0 | 0.0 | 0.0 | 0.00 | 1.91 | 1.91 | 73 | 1013.5 |
| 20260507035017 | 8 | 0 | 0.0 | 1.6 | 0.00 | 1.91 | 1.91 | 71 | 1013.5 |
| 20260507034533 | 8 | 0 | 0.0 | 1.6 | 0.00 | 1.91 | 1.91 | 70 | 1013.4 |
| 20260507034019 | 8 | 342 | 0.0 | 1.6 | 0.00 | 1.91 | 1.91 | 72 | 1013.7 |
| 20260507033519 | 8 | 0 | 0.0 | 1.6 | 0.00 | 1.91 | 1.91 | 72 | 1013.7 |
| 20260507033033 | 8 | 0 | 0.0 | 1.6 | 0.00 | 1.91 | 1.91 | 70 | 1013.5 |
| 20260507032521 | 9 | 342 | 0.0 | 4.8 | 0.00 | 1.91 | 1.91 | 70 | 1013.3 |
| 20260507032016 | 9 | 321 | 0.0 | 4.8 | 0.00 | 1.91 | 1.91 | 69 | 1013.3 |
| 20260507031533 | 9 | 341 | 1.6 | 3.2 | 0.00 | 1.91 | 1.91 | 68 | 1013.2 |
| 20260507031017 | 9 | 342 | 0.0 | 3.2 | 0.00 | 1.91 | 1.91 | 69 | 1013.0 |
| 20260507030519 | 9 | 0 | 0.0 | 3.2 | 0.00 | 1.91 | 1.91 | 69 | 1013.1 |
| 20260507030042 | 9 | 0 | 0.0 | 4.8 | 0.00 | 1.91 | 1.91 | 68 | 1013.2 |
| 20260507025518 | 9 | 0 | 1.6 | 4.8 | 0.00 | 1.91 | 1.91 | 68 | 1013.0 |
| 20260507025017 | 9 | 6 | 0.0 | 3.2 | 0.00 | 1.91 | 1.91 | 68 | 1013.0 |
| 20260507024539 | 9 | 0 | 0.0 | 3.2 | 0.00 | 1.91 | 1.91 | 69 | 1013.0 |
| 20260507024016 | 9 | 319 | 0.0 | 3.2 | 0.00 | 1.91 | 1.91 | 69 | 1012.8 |
| 20260507023518 | 9 | 351 | 0.0 | 3.2 | 0.00 | 1.91 | 1.91 | 69 | 1013.0 |
| 20260507023035 | 9 | 343 | 0.0 | 1.6 | 0.00 | 1.91 | 1.91 | 69 | 1013.0 |
| 20260507022519 | 9 | 0 | 0.0 | 1.6 | 0.00 | 1.91 | 1.91 | 69 | 1012.8 |
| 20260507022018 | 10 | 323 | 0.0 | 3.2 | 0.00 | 1.91 | 1.91 | 68 | 1012.9 |
| 20260507021534 | 10 | 340 | 0.0 | 4.8 | 0.00 | 1.91 | 1.91 | 67 | 1012.7 |
| 20260507021017 | 10 | 20 | 1.6 | 4.8 | 0.00 | 1.91 | 1.91 | 67 | 1012.7 |
| 20260507020517 | 10 | 0 | 1.6 | 4.8 | 0.00 | 1.91 | 1.91 | 68 | 1012.7 |
| 20260507020037 | 10 | 0 | 0.0 | 4.8 | 0.00 | 1.91 | 1.91 | 69 | 1012.7 |
| 20260507015518 | 10 | 347 | 1.6 | 4.8 | 0.00 | 1.91 | 1.91 | 69 | 1012.5 |
| 20260507015019 | 10 | 317 | 0.0 | 4.8 | 0.00 | 1.91 | 1.91 | 70 | 1012.4 |
| 20260507014557 | 10 | 326 | 1.6 | 6.4 | 0.00 | 1.91 | 1.91 | 69 | 1012.4 |
| 20260507014017 | 10 | 342 | 3.2 | 6.4 | 0.00 | 1.91 | 1.91 | 69 | 1012.2 |
| 20260507013518 | 10 | 326 | 3.2 | 6.4 | 0.00 | 1.91 | 1.91 | 69 | 1012.1 |
| 20260507013039 | 10 | 0 | 1.6 | 6.4 | 0.00 | 1.91 | 1.91 | 70 | 1012.1 |
| 20260507012521 | 10 | 305 | 1.6 | 4.8 | 0.00 | 1.91 | 1.91 | 71 | 1012.1 |
| 20260507012021 | 10 | 316 | 0.0 | 3.2 | 0.00 | 1.91 | 1.91 | 71 | 1012.1 |
| 20260507011539 | 10 | 0 | 0.0 | 6.4 | 0.00 | 1.91 | 1.91 | 70 | 1012.0 |
| 20260507011020 | 10 | 313 | 1.6 | 6.4 | 0.00 | 1.91 | 1.91 | 70 | 1012.1 |
| 20260507010523 | 10 | 56 | 1.6 | 9.7 | 0.00 | 1.91 | 1.91 | 72 | 1012.4 |
| 20260507010038 | 10 | 0 | 3.2 | 11.3 | 0.00 | 1.91 | 1.91 | 72 | 1012.6 |
| 20260507005524 | 10 | 314 | 4.8 | 11.3 | 0.00 | 1.91 | 1.91 | 72 | 1012.4 |
| 20260507005020 | 10 | 353 | 4.8 | 11.3 | 0.00 | 1.91 | 1.91 | 75 | 1012.5 |
| 20260507004535 | 10 | 308 | 1.6 | 6.4 | 0.00 | 1.91 | 1.91 | 79 | 1012.6 |
| 20260507004017 | 10 | 332 | 3.2 | 6.4 | 0.00 | 1.91 | 1.91 | 80 | 1012.5 |
| 20260507003516 | 10 | 0 | 0.0 | 0.0 | 0.00 | 1.91 | 1.91 | 82 | 1012.4 |
| 20260507003034 | 10 | 0 | 0.0 | 1.6 | 0.00 | 1.91 | 1.91 | 81 | 1012.5 |
| 20260507002516 | 11 | 0 | 0.0 | 1.6 | 0.00 | 1.91 | 1.91 | 82 | 1012.7 |
| 20260507002017 | 11 | 0 | 0.0 | 1.6 | 0.00 | 1.91 | 1.91 | 82 | 1012.7 |
| 20260507001539 | 11 | 326 | 0.0 | 3.2 | 0.00 | 1.91 | 1.91 | 81 | 1012.8 |
| 20260507001020 | 11 | 326 | 0.0 | 3.2 | 0.00 | 1.91 | 1.91 | 81 | 1012.6 |
| 20260507000518 | 11 | 0 | 0.0 | 3.2 | 0.00 | 1.91 | 1.91 | 81 | 1012.3 |
| 20260507000042 | 11 | 0 | 0.0 | 0.0 | 0.00 | 1.91 | 1.91 | 82 | 1012.0 |
| 20260506235518 | 11 | 0 | 0.0 | 0.0 | 0.00 | 1.91 | 1.91 | 80 | 1012.1 |
| 20260506235020 | 11 | 0 | 0.0 | 0.0 | 0.00 | 1.91 | 1.91 | 80 | 1012.1 |
| 20260506234535 | 11 | 0 | 0.0 | 0.0 | 0.00 | 1.91 | 1.91 | 81 | 1012.1 |
| 20260506234018 | 11 | 0 | 0.0 | 0.0 | 0.00 | 1.91 | 1.91 | 81 | 1012.1 |
| 20260506233518 | 11 | 0 | 0.0 | 0.0 | 0.00 | 1.91 | 1.91 | 81 | 1012.0 |
| 20260506233034 | 11 | 0 | 0.0 | 0.0 | 0.00 | 1.91 | 1.91 | 81 | 1012.0 |
| 20260506232517 | 11 | 0 | 0.0 | 0.0 | 0.00 | 1.91 | 1.91 | 81 | 1011.8 |
| 20260506232017 | 11 | 0 | 0.0 | 0.0 | 0.00 | 1.91 | 1.91 | 82 | 1011.8 |
| 20260506231535 | 11 | 0 | 0.0 | 0.0 | 0.00 | 1.91 | 1.91 | 81 | 1011.8 |
| 20260506231021 | 11 | 0 | 0.0 | 0.0 | 0.00 | 1.91 | 1.91 | 80 | 1011.7 |
| 20260506230518 | 11 | 0 | 0.0 | 0.0 | 0.00 | 1.91 | 1.91 | 80 | 1011.6 |
| 20260506230040 | 11 | 0 | 0.0 | 0.0 | 0.00 | 1.91 | 1.91 | 79 | 1011.6 |
| 20260506225518 | 11 | 0 | 0.0 | 0.0 | 0.00 | 1.91 | 1.91 | 78 | 1011.5 |
| 20260506225018 | 11 | 0 | 0.0 | 0.0 | 0.00 | 1.91 | 1.91 | 78 | 1011.6 |
| 20260506224538 | 11 | 0 | 0.0 | 4.8 | 0.00 | 1.91 | 1.91 | 77 | 1011.5 |
| 20260506224017 | 11 | 0 | 0.0 | 4.8 | 0.00 | 1.91 | 1.91 | 76 | 1011.3 |
| 20260506223517 | 12 | 0 | 0.0 | 1.6 | 0.00 | 1.91 | 1.91 | 77 | 1011.4 |
| 20260506223038 | 12 | 0 | 0.0 | 3.2 | 0.00 | 1.91 | 1.91 | 77 | 1011.4 |
| 20260506222517 | 12 | 0 | 0.0 | 3.2 | 0.00 | 1.91 | 1.91 | 77 | 1011.4 |
| 20260506222018 | 12 | 0 | 0.0 | 3.2 | 0.00 | 1.91 | 1.91 | 77 | 1011.5 |
| 20260506221534 | 12 | 307 | 0.0 | 1.6 | 0.00 | 1.91 | 1.91 | 77 | 1011.4 |
| 20260506221018 | 12 | 0 | 0.0 | 1.6 | 0.00 | 1.91 | 1.91 | 77 | 1011.5 |
| 20260506220516 | 11 | 0 | 0.0 | 3.2 | 0.00 | 1.91 | 1.91 | 77 | 1011.4 |
| 20260506220038 | 11 | 0 | 0.0 | 3.2 | 0.00 | 1.91 | 1.91 | 77 | 1011.3 |
| 20260506215518 | 11 | 276 | 0.0 | 6.4 | 0.00 | 1.91 | 1.91 | 77 | 1011.1 |
| 20260506215018 | 11 | 307 | 1.6 | 6.4 | 0.00 | 1.91 | 1.91 | 77 | 1011.3 |
| 20260506214533 | 11 | 335 | 1.6 | 6.4 | 0.00 | 1.91 | 1.91 | 78 | 1011.1 |
| 20260506214020 | 11 | 335 | 3.2 | 6.4 | 0.00 | 1.91 | 1.91 | 77 | 1011.1 |
| 20260506213517 | 11 | 332 | 1.6 | 6.4 | 0.00 | 1.91 | 1.91 | 78 | 1011.1 |
| 20260506213039 | 11 | 330 | 1.6 | 6.4 | 0.00 | 1.91 | 1.91 | 77 | 1011.0 |
| 20260506212518 | 11 | 18 | 1.6 | 9.7 | 0.00 | 1.91 | 1.91 | 77 | 1010.9 |
| 20260506212019 | 11 | 330 | 3.2 | 9.7 | 0.00 | 1.91 | 1.91 | 77 | 1010.9 |